Location: Sevilla
(37.3933°N, 5.9839°W)
Time: 14:18:38
(UTC+02:00)

Vanguard 1 Rocket - Visible Passes

Search period start: 21 June 2024 00:00
Search period end: 01 July 2024 00:00
Orbit: 649 x 4220 km, 34.3° (Epoch: 20 June)

Date Brightness Start Highest point End Pass type
(mag) Time Alt. Az. Time Alt. Az. Time Alt. Az.
21 Jun 10.2 01:49:13 28° SE 01:49:13 28° SE 02:04:18 10° E visible
21 Jun 9.9 04:06:22 31° SW 04:15:46 66° SSE 04:40:27 10° E visible
21 Jun 10.6 06:27:31 10° W 06:47:33 82° S 07:14:07 10° E visible
22 Jun 10.7 00:40:41 13° ESE 00:40:41 13° ESE 00:43:55 10° E visible
22 Jun 9.6 02:57:50 43° S 03:02:00 51° SE 03:23:12 10° ENE visible
22 Jun 10.3 05:14:58 11° WSW 05:31:31 80° S 05:57:59 10° E visible
23 Jun 9.8 01:49:17 34° SE 01:49:26 34° SE 02:05:31 10° E visible
23 Jun 9.9 04:06:26 28° SW 04:16:27 71° SSE 04:41:08 10° E visible
23 Jun 10.6 06:28:43 10° W 06:48:19 81° S 07:14:56 10° ESE visible
24 Jun 10.4 00:40:43 17° ESE 00:40:43 17° ESE 00:46:47 10° E visible
24 Jun 9.4 02:57:52 44° SSW 03:02:32 58° SSE 03:23:54 10° ENE visible
24 Jun 10.3 05:15:50 10° W 05:32:20 81° S 05:58:44 10° E visible
25 Jun 9.5 01:49:16 40° SE 01:49:49 40° SE 02:06:30 10° ENE visible
25 Jun 9.9 04:06:24 22° WSW 04:17:14 76° SSE 04:41:49 10° E visible
25 Jun 10.6 06:29:55 10° W 06:49:04 79° S 07:15:39 10° ESE visible
26 Jun 10.1 00:40:39 22° ESE 00:40:39 22° ESE 00:48:41 10° E visible
26 Jun 9.4 02:57:47 41° SW 03:03:14 64° SSE 03:24:34 10° E visible
26 Jun 10.2 05:17:05 10° W 05:33:12 82° S 05:59:28 10° E visible
27 Jun 9.2 01:49:08 46° SSE 01:50:21 47° SE 02:07:21 10° ENE visible
27 Jun 9.8 04:06:16 16° WSW 04:18:08 79° S 04:42:29 10° E visible
27 Jun 10.5 06:31:08 10° W 06:49:47 76° SSW 07:16:14 10° ESE visible
28 Jun 9.7 00:40:27 27° ESE 00:40:27 27° ESE 00:50:06 10° E visible
28 Jun 9.4 02:57:34 34° SW 03:04:04 69° SSE 03:25:14 10° E visible
28 Jun 10.2 05:18:22 10° W 05:34:05 80° S 06:00:08 10° ESE visible
29 Jun 8.9 01:48:49 48° S 01:51:03 53° SSE 02:08:07 10° E visible
29 Jun 9.7 04:06:10 10° W 04:19:05 80° S 04:43:09 10° E visible
29 Jun 10.5 06:32:21 10° W 06:50:27 71° SSW 07:16:40 10° ESE visible
30 Jun 9.2 00:39:59 34° SE 00:39:59 34° SE 00:51:17 10° E visible
30 Jun 9.3 02:57:06 24° WSW 03:05:00 74° SSE 03:25:53 10° E visible
30 Jun 10.1 05:19:40 10° W 05:34:57 78° S 06:00:42 10° ESE visible
30 Jun 9.9 23:31:01 15° ESE 23:31:01 15° ESE 23:34:07 10° E visible
